Location: Unspecified
(0.0000°N, 0.0000°E)
Time: 01:24:48
(UTC+00:00)

N. Korean satellite - Pass Details

Date: 21 October 2017
Orbit: 459 x 517 km, 97.2° (Epoch: 19 October)

Event Time Altitude Azimuth Distance (km) Brightness Sun altitude
Rises 18:52:25 0° 186° (S) 2,583 10.5 -16.6°
Reaches altitude 10° 18:54:41 10° 196° (SSW) 1,688 9.7 -17.2°
Maximum altitude 18:57:53 30° 258° (WSW) 901 8.7 -18.0°
Drops below altitude 10° 19:01:02 10° 321° (NW) 1,650 9.6 -18.8°
Sets 19:03:13 0° 332° (NNW) 2,515 10.4 -19.3°
